Retour au catalogue

STARLINK-38088

ActifCommunicationsSSO
NORAD 100114·PAYLOAD·🇺🇸 United States

Lancé Jul 21, 2026 depuis Vandenberg Space Force Base

Loading…

Prochains Passages (prochaines 24 heures)

TLE

FraisSource: Space-Track

Époque: Sep 14, 2026, 11:43 UTC

1 A0114U 26166P   26257.48819681  .00199109  00000-0  13013-2 0  9993
2 A0114  97.2833 275.4879 0000970  85.1503 274.9873 15.75253544  8650

Suivez STARLINK-38088 en temps réel avec AllMySat

Download on the App Store